Time[GMT],current_speed[cm/s](2m),current_direction[angular_degrees](2m),temperature[C](2m),current_u[cm/s](2m),current_v[cm/s](2m)
2017-05-19 15:20,41.36,151.3,9.93,19.88,-36.26
2017-05-19 15:40,42.53,156.9,10.79,16.69,-39.11
2017-05-19 16:00,51.33,153.4,10.88,23.01,-45.88
2017-05-19 16:20,49.57,166.7,11.01,11.38,-48.24
2017-05-19 16:40,47.22,167.4,10.95,10.27,-46.09
2017-05-19 17:00,52.50,172.4,10.95,6.98,-52.03
2017-05-19 17:20,44.58,163.6,10.69,12.61,-42.76
2017-05-19 17:40,45.17,163.2,10.47,13.04,-43.24
2017-05-19 18:00,53.09,159.3,10.54,18.72,-49.68
2017-05-19 18:20,54.55,144.9,10.69,31.34,-44.65
2017-05-19 18:40,54.85,148.8,10.79,28.41,-46.91
2017-05-19 19:00,63.06,154.4,10.73,27.22,-56.88
2017-05-19 19:20,63.65,167.4,10.63,13.85,-62.12
2017-05-19 19:40,64.82,167.8,10.28,13.71,-63.35
2017-05-19 20:00,70.10,171.3,10.47,10.60,-69.29
2017-05-19 20:20,71.86,172.7,10.73,9.12,-71.28
2017-05-19 20:40,70.98,171.3,10.79,10.73,-70.16
2017-05-19 21:00,69.81,174.1,10.60,7.16,-69.44
2017-05-19 21:20,70.10,170.2,11.23,11.87,-69.09
2017-05-19 21:40,75.08,161.8,11.33,23.44,-71.33
2017-05-19 22:00,86.82,170.6,11.51,14.18,-85.65
2017-05-19 22:20,87.70,172.0,10.88,12.20,-86.84
2017-05-19 22:40,85.06,179.0,10.82,1.43,-85.05
2017-05-19 23:00,86.52,175.9,11.39,6.23,-86.30
2017-05-19 23:20,85.35,175.5,11.36,6.66,-85.09
2017-05-19 23:40,83.30,171.3,10.91,12.60,-82.34
2017-05-20 00:00,85.64,170.2,10.54,14.51,-84.41
2017-05-20 00:20,82.12,166.7,10.22,18.85,-79.93
2017-05-20 00:40,60.13,179.4,9.05,0.64,-60.12
2017-05-20 01:00,43.12,190.6,8.76,-7.96,-42.37
2017-05-20 01:20,29.04,259.6,10.09,-28.56,-5.26
2017-05-20 01:40,26.98,292.6,10.60,-24.91,10.37
2017-05-20 02:00,16.72,153.4,10.91,7.49,-14.94
2017-05-20 02:20,16.72,141.8,10.06,10.35,-13.13
2017-05-20 02:40,16.72,103.8,8.54,16.24,-3.99
2017-05-20 03:00,9.97,120.0,8.38,8.64,-4.98
2017-05-20 03:20,15.25,111.5,8.03,14.19,-5.60
2017-05-20 03:40,11.73,128.8,8.00,9.15,-7.34
2017-05-20 04:00,7.33,148.4,8.06,3.84,-6.25
2017-05-20 04:20,9.97,123.1,8.25,8.35,-5.45
2017-05-20 04:40,9.68,117.9,8.19,8.56,-4.52
2017-05-20 05:00,12.91,132.3,8.28,9.55,-8.68
2017-05-20 05:20,11.15,132.6,8.32,8.20,-7.55
2017-05-20 05:40,10.27,147.4,8.38,5.53,-8.65
2017-05-20 06:00,6.45,199.8,8.54,-2.18,-6.07
2017-05-20 06:20,4.40,239.5,8.57,-3.79,-2.23
2017-05-20 06:40,3.81,265.2,8.25,-3.80,-0.32
2017-05-20 07:00,6.16,283.8,8.00,-5.98,1.47
2017-05-20 07:20,10.27,302.4,8.28,-8.66,5.51
2017-05-20 07:40,3.23,353.0,7.23,-0.39,3.20
2017-05-20 08:00,5.87,18.4,8.47,1.85,5.57
2017-05-20 08:20,3.23,101.3,7.17,3.16,-0.63
2017-05-20 08:40,8.80,124.5,7.65,7.25,-4.99
2017-05-20 09:00,8.51,128.8,7.68,6.63,-5.32
2017-05-20 09:20,17.89,174.1,7.96,1.83,-17.80
2017-05-20 09:40,28.16,162.2,7.81,8.63,-26.80
2017-05-20 10:00,30.80,176.9,7.61,1.65,-30.75
2017-05-20 10:20,25.22,182.6,7.10,-1.12,-25.20
2017-05-20 10:40,28.45,178.0,7.36,1.00,-28.43
2017-05-20 11:00,33.73,178.0,7.45,1.19,-33.71
2017-05-20 11:20,37.25,179.0,7.55,0.63,-37.24
2017-05-20 11:40,47.51,191.0,7.45,-9.06,-46.64
2017-05-20 12:00,39.30,209.3,7.42,-19.22,-34.28
2017-05-20 12:20,34.61,205.8,7.29,-15.04,-31.17
2017-05-20 12:40,22.00,247.2,7.20,-20.29,-8.51
2017-05-20 13:00,36.66,246.2,8.32,-33.54,-14.80
2017-05-20 13:20,37.84,246.9,8.09,-34.80,-14.85
2017-05-20 13:40,52.21,247.6,8.16,-48.27,-19.89
2017-05-20 14:00,30.21,233.9,8.38,-24.41,-17.80
2017-05-20 14:20,15.84,197.0,7.58,-4.62,-15.15
2017-05-20 14:40,6.75,211.0,7.42,-3.48,-5.78
2017-05-20 15:00,5.28,181.1,7.39,-0.11,-5.28
2017-05-20 15:20,15.25,62.7,7.87,13.55,7.00
2017-05-20 15:40,7.63,31.7,7.49,4.01,6.49
2017-05-20 16:00,7.92,19.1,7.74,2.59,7.48
2017-05-20 16:20,7.33,61.6,7.90,6.45,3.49
2017-05-20 16:40,13.79,80.2,7.90,13.59,2.34
2017-05-20 17:00,14.08,85.5,7.61,14.04,1.10
2017-05-20 17:20,20.82,108.0,7.65,19.80,-6.44
2017-05-20 17:40,16.13,111.5,7.84,15.01,-5.92
2017-05-20 18:00,14.66,110.5,7.90,13.74,-5.13
2017-05-20 18:20,13.20,89.7,8.19,13.20,0.06
2017-05-20 18:40,8.51,105.2,8.03,8.21,-2.23
2017-05-20 19:00,4.40,113.6,7.65,4.03,-1.76
2017-05-20 19:20,4.99,149.9,7.90,2.50,-4.31
2017-05-20 19:40,5.28,160.4,7.49,1.77,-4.97
2017-05-20 20:00,8.21,152.7,7.42,3.77,-7.30
2017-05-20 20:20,18.77,137.2,8.35,12.75,-13.77
2017-05-20 20:40,17.30,142.1,8.51,10.63,-13.66
2017-05-20 21:00,17.30,162.5,8.92,5.20,-16.50
2017-05-20 21:20,14.66,153.4,8.70,6.57,-13.11
2017-05-20 21:40,24.93,163.2,8.86,7.20,-23.87
2017-05-20 22:00,35.49,169.5,8.70,6.44,-34.90
2017-05-20 22:20,30.21,174.8,8.63,2.73,-30.09
2017-05-20 22:40,30.80,169.9,8.51,5.40,-30.32
2017-05-20 23:00,24.05,184.7,8.35,-1.96,-23.97
2017-05-20 23:20,28.45,188.2,8.41,-4.05,-28.16
2017-05-20 23:40,27.28,176.9,8.41,1.46,-27.24
2017-05-21 00:00,18.18,174.8,7.29,1.64,-18.11
2017-05-21 00:20,14.66,177.3,6.94,0.70,-14.65
2017-05-21 00:40,10.85,188.9,6.78,-1.68,-10.72
2017-05-21 01:00,39.89,210.3,8.09,-20.14,-34.43
2017-05-21 01:20,20.53,223.7,8.51,-14.18,-14.85
2017-05-21 01:40,37.54,229.7,9.87,-28.62,-24.30
2017-05-21 02:00,22.29,232.8,9.78,-17.76,-13.47
2017-05-21 02:20,7.92,229.7,8.19,-6.04,-5.13
2017-05-21 02:40,5.28,153.4,8.03,2.37,-4.72
2017-05-21 03:00,7.92,161.8,7.96,2.47,-7.52
2017-05-21 03:20,12.61,111.2,8.09,11.76,-4.56
2017-05-21 03:40,8.80,105.9,8.00,8.46,-2.41
2017-05-21 04:00,2.93,33.5,8.19,1.62,2.45
2017-05-21 04:20,2.93,105.9,8.19,2.82,-0.80
2017-05-21 04:40,7.63,311.9,8.25,-5.67,5.10
2017-05-21 05:00,7.92,303.5,8.16,-6.60,4.37
2017-05-21 05:20,8.51,322.1,8.19,-5.22,6.72
2017-05-21 05:40,5.87,329.9,8.25,-2.94,5.07
2017-05-21 06:00,9.09,313.0,8.06,-6.65,6.20
2017-05-21 06:20,10.85,311.2,8.19,-8.16,7.15
2017-05-21 06:40,8.21,304.2,8.22,-6.79,4.62
2017-05-21 07:00,7.33,303.5,8.25,-6.11,4.05
2017-05-21 07:20,18.48,279.6,7.33,-18.22,3.08
2017-05-21 07:40,17.01,285.6,6.39,-16.39,4.57
2017-05-21 08:00,13.20,292.3,6.78,-12.22,5.00
2017-05-21 08:20,11.73,320.0,6.84,-7.54,8.99
2017-05-21 08:40,12.61,339.0,8.12,-4.52,11.78
2017-05-21 09:00,9.68,337.3,8.03,-3.74,8.93
2017-05-21 09:20,11.15,358.3,8.19,-0.33,11.14
2017-05-21 09:40,16.42,15.9,7.07,4.50,15.80
2017-05-21 10:00,14.08,24.3,7.10,5.80,12.83
2017-05-21 10:20,9.97,56.7,6.07,8.33,5.48
2017-05-21 10:40,4.69,162.9,6.36,1.38,-4.48
2017-05-21 11:00,25.52,180.1,8.03,-0.04,-25.52
2017-05-21 11:20,17.60,179.4,7.81,0.19,-17.60
2017-05-21 11:40,19.94,174.1,7.61,2.04,-19.84
2017-05-21 12:00,20.82,169.5,7.26,3.78,-20.48
2017-05-21 12:20,19.06,168.1,6.84,3.92,-18.66
2017-05-21 12:40,12.32,187.8,7.26,-1.68,-12.20
2017-05-21 13:00,22.29,181.1,7.33,-0.45,-22.29
2017-05-21 13:20,28.45,185.7,7.58,-2.83,-28.31
2017-05-21 13:40,30.80,210.7,7.45,-15.71,-26.49
2017-05-21 14:00,26.40,205.8,7.45,-11.47,-23.77
2017-05-21 14:20,13.49,210.7,7.68,-6.88,-11.60
2017-05-21 14:40,8.51,192.8,7.49,-1.88,-8.30
2017-05-21 15:00,12.61,145.6,7.20,7.12,-10.41
2017-05-21 15:20,7.63,132.6,7.04,5.61,-5.16
2017-05-21 15:40,5.87,84.1,7.55,5.83,0.60
2017-05-21 16:00,14.37,111.9,7.77,13.34,-5.36
2017-05-21 16:20,7.33,92.9,7.42,7.32,-0.37
2017-05-21 16:40,4.40,92.5,7.49,4.40,-0.20
2017-05-21 17:00,10.85,83.4,7.58,10.78,1.25
2017-05-21 17:20,2.05,338.3,7.68,-0.76,1.91
2017-05-21 17:40,10.27,317.9,7.74,-6.88,7.62
2017-05-21 18:00,5.28,308.8,7.87,-4.12,3.31
2017-05-21 18:20,10.27,16.2,7.93,2.87,9.86
2017-05-21 18:40,7.63,340.8,8.16,-2.51,7.20
2017-05-21 19:00,8.80,294.0,7.90,-8.04,3.58
2017-05-21 19:20,4.99,254.6,7.93,-4.81,-1.32
2017-05-21 19:40,8.51,63.7,8.19,7.63,3.77
2017-05-21 20:00,11.73,5.0,8.28,1.02,11.69
2017-05-21 20:20,17.01,4.6,8.63,1.38,16.96
2017-05-21 20:40,28.45,355.9,9.21,-2.06,28.38
2017-05-21 21:00,20.82,329.2,9.02,-10.67,17.88
2017-05-21 21:20,25.81,19.1,9.52,8.43,24.40
2017-05-21 21:40,25.52,21.2,9.30,9.21,23.80
2017-05-21 22:00,26.10,28.9,9.40,12.62,22.85
2017-05-21 22:20,32.85,12.4,9.17,7.04,32.09
2017-05-21 22:40,42.82,23.3,9.65,16.92,39.34
2017-05-21 23:00,33.44,11.7,8.92,6.77,32.74
2017-05-21 23:20,34.61,4.6,9.08,2.80,34.50
2017-05-21 23:40,19.06,54.6,9.49,15.53,11.05
2017-05-22 00:00,14.96,87.6,9.33,14.95,0.62
2017-05-22 00:20,6.16,116.5,9.46,5.51,-2.74
2017-05-22 00:40,0.59,320.0,9.43,-0.38,0.45
2017-05-22 01:00,5.57,291.9,9.21,-5.17,2.08
2017-05-22 01:20,5.87,304.2,9.30,-4.85,3.30
2017-05-22 01:40,6.16,20.5,9.14,2.15,5.77
2017-05-22 02:00,3.23,310.9,9.02,-2.44,2.11
2017-05-22 02:20,16.13,167.8,9.71,3.41,-15.77
2017-05-22 02:40,14.08,180.4,9.43,-0.11,-14.08
2017-05-22 03:00,12.32,194.9,9.52,-3.16,-11.91
2017-05-22 03:20,18.77,195.2,9.81,-4.93,-18.11
2017-05-22 03:40,16.72,186.8,9.71,-1.97,-16.60
2017-05-22 04:00,18.18,168.8,9.55,3.52,-17.84
2017-05-22 04:20,7.92,177.6,9.52,0.33,-7.91
2017-05-22 04:40,5.87,158.6,9.55,2.14,-5.46
2017-05-22 05:00,18.18,155.5,9.78,7.55,-16.54
2017-05-22 05:20,17.60,156.5,9.78,7.01,-16.14
2017-05-22 05:40,12.03,152.7,9.71,5.52,-10.68
2017-05-22 06:00,15.84,121.4,9.71,13.52,-8.25
2017-05-22 06:20,12.91,102.4,9.68,12.60,-2.77
2017-05-22 06:40,5.28,107.0,9.49,5.05,-1.54
2017-05-22 07:00,7.63,82.7,9.43,7.56,0.97
2017-05-22 07:20,7.92,66.2,9.36,7.24,3.20
2017-05-22 07:40,5.87,5.0,9.24,0.51,5.84
2017-05-22 08:00,22.00,279.2,8.92,-21.71,3.53
2017-05-22 08:20,9.39,20.5,9.33,3.28,8.79
2017-05-22 08:40,16.42,317.9,9.05,-11.01,12.19
2017-05-22 09:00,14.37,343.9,9.21,-3.99,13.81
2017-05-22 09:20,22.88,6.4,9.43,2.55,22.73
2017-05-22 09:40,14.66,34.5,9.59,8.31,12.08
2017-05-22 10:00,19.06,59.5,8.00,16.43,9.68
2017-05-22 10:20,9.68,65.1,9.49,8.78,4.07
2017-05-22 10:40,6.75,200.1,10.00,-2.32,-6.33
2017-05-22 11:00,14.08,167.8,9.93,2.98,-13.76
2017-05-22 11:20,32.85,165.0,10.03,8.52,-31.73
2017-05-22 11:40,31.97,168.8,9.87,6.19,-31.37
2017-05-22 12:00,29.33,172.7,9.55,3.72,-29.09
2017-05-22 12:20,29.33,170.2,9.55,4.97,-28.91
2017-05-22 12:40,27.86,174.8,9.43,2.52,-27.75
2017-05-22 13:00,33.14,174.8,9.36,2.99,-33.01
2017-05-22 13:20,31.09,176.9,9.30,1.67,-31.05
2017-05-22 13:40,33.14,194.5,9.05,-8.30,-32.09
2017-05-22 14:00,33.14,197.7,9.14,-10.06,-31.58
2017-05-22 14:20,36.66,193.1,9.02,-8.31,-35.71
2017-05-22 14:40,36.66,187.5,8.70,-4.77,-36.35
2017-05-22 15:00,32.26,188.5,8.54,-4.79,-31.91
2017-05-22 15:20,22.58,235.6,8.79,-18.64,-12.74
2017-05-22 15:40,6.45,204.0,8.41,-2.62,-5.89
2017-05-22 16:00,3.52,121.4,8.35,3.00,-1.83
2017-05-22 16:20,4.99,125.6,8.79,4.05,-2.90
2017-05-22 16:40,8.80,6.8,8.35,1.03,8.74
2017-05-22 17:00,9.09,15.5,8.44,2.44,8.76
2017-05-22 17:20,13.79,43.3,8.35,9.46,10.03
2017-05-22 17:40,7.63,58.8,8.19,6.52,3.95
2017-05-22 18:00,10.85,61.6,8.06,9.55,5.16
2017-05-22 18:20,10.56,80.2,8.35,10.41,1.79
2017-05-22 18:40,8.80,77.8,8.35,8.60,1.86
2017-05-22 19:00,13.20,77.4,8.41,12.88,2.87
2017-05-22 19:20,8.80,82.0,8.19,8.71,1.23
2017-05-22 19:40,10.85,80.6,7.96,10.71,1.77
2017-05-22 20:00,13.20,65.5,8.19,12.01,5.48
2017-05-22 20:20,8.80,6.8,9.30,1.03,8.74
2017-05-22 20:40,15.54,352.3,9.49,-2.07,15.41
2017-05-22 21:00,16.72,359.0,9.52,-0.29,16.72
2017-05-22 21:20,31.97,12.0,9.65,6.66,31.27
2017-05-22 21:40,39.89,14.8,9.59,10.22,38.56
2017-05-22 22:00,41.65,29.3,9.59,20.35,36.34
2017-05-22 22:20,34.61,23.6,9.49,13.87,31.71
2017-05-22 22:40,38.72,17.7,9.46,11.74,36.89
2017-05-22 23:00,51.33,18.7,9.14,16.46,48.62
2017-05-22 23:20,56.61,24.3,9.49,23.33,51.58
2017-05-22 23:40,54.85,21.5,9.36,20.12,51.02
2017-05-23 00:00,47.22,23.6,9.68,18.93,43.26
2017-05-23 00:20,31.09,64.8,9.71,28.12,13.25
2017-05-23 00:40,19.94,54.9,9.55,16.32,11.46
2017-05-23 01:00,17.30,26.1,9.49,7.61,15.54
2017-05-23 01:20,18.18,358.7,9.46,-0.42,18.18
2017-05-23 01:40,22.58,349.2,9.49,-4.24,22.18
2017-05-23 02:00,18.48,329.2,9.43,-9.47,15.87
2017-05-23 02:20,16.42,347.8,9.49,-3.48,16.05
2017-05-23 02:40,23.76,348.8,9.59,-4.61,23.31
2017-05-23 03:00,23.17,345.0,9.59,-6.01,22.38
2017-05-23 03:20,17.01,356.6,9.59,-1.02,16.98
2017-05-23 03:40,10.27,332.0,9.59,-4.82,9.06
2017-05-23 04:00,9.68,303.9,9.62,-8.04,5.39
2017-05-23 04:20,11.15,294.0,9.68,-10.18,4.54
2017-05-23 04:40,5.87,279.9,9.74,-5.78,1.01
2017-05-23 05:00,2.05,50.7,9.71,1.59,1.30
2017-05-23 05:20,20.82,152.7,9.84,9.56,-18.50
2017-05-23 05:40,20.53,157.6,9.87,7.83,-18.98
2017-05-23 06:00,20.82,150.9,10.00,10.12,-18.20
2017-05-23 06:20,20.82,144.9,9.87,11.96,-17.04
2017-05-23 06:40,20.82,159.7,10.03,7.22,-19.53
2017-05-23 07:00,15.54,153.7,10.16,6.88,-13.94
2017-05-23 07:20,16.42,136.1,9.78,11.38,-11.84
2017-05-23 07:40,18.18,131.6,10.00,13.60,-12.07
2017-05-23 08:00,10.27,121.7,9.36,8.73,-5.40
2017-05-23 08:20,13.20,118.2,9.55,11.63,-6.24
2017-05-23 08:40,8.51,140.4,9.68,5.43,-6.55
2017-05-23 09:00,5.87,87.3,10.09,5.86,0.28
2017-05-23 09:20,9.97,58.1,10.03,8.46,5.27
2017-05-23 09:40,17.01,39.8,10.28,10.89,13.07
2017-05-23 10:00,25.81,48.2,10.09,19.25,17.19
2017-05-23 10:20,19.65,41.2,9.68,12.95,14.78
2017-05-23 10:40,12.32,17.7,9.52,3.74,11.74
2017-05-23 11:00,5.57,55.3,9.52,4.58,3.17
2017-05-23 11:20,9.09,154.8,10.00,3.87,-8.23
2017-05-23 11:40,12.03,56.3,10.03,10.01,6.67
2017-05-23 12:00,13.49,139.7,9.84,8.73,-10.28
2017-05-23 12:20,13.20,147.4,10.03,7.11,-11.12
2017-05-23 12:40,21.41,158.3,10.28,7.92,-19.89
2017-05-23 13:00,20.53,161.8,10.25,6.41,-19.50
2017-05-23 13:20,20.24,142.1,10.22,12.43,-15.97
2017-05-23 13:40,22.00,160.4,10.31,7.38,-20.72
2017-05-23 14:00,27.28,167.4,10.38,5.93,-26.62
2017-05-23 14:20,27.28,168.1,10.31,5.61,-26.69
2017-05-23 14:40,31.97,165.0,9.97,8.29,-30.88
2017-05-23 15:00,32.85,160.4,9.71,11.02,-30.95
2017-05-23 15:20,34.02,167.1,9.65,7.61,-33.16
2017-05-23 15:40,30.50,162.9,9.74,8.99,-29.15
2017-05-23 16:00,21.12,165.7,9.90,5.22,-20.46
2017-05-23 16:20,20.53,188.5,9.52,-3.05,-20.30
2017-05-23 16:40,19.36,155.1,9.78,8.14,-17.56
2017-05-23 17:00,24.05,163.2,9.46,6.94,-23.03
2017-05-23 17:20,28.74,150.2,9.52,14.28,-24.94
2017-05-23 17:40,22.00,154.8,9.59,9.37,-19.90
2017-05-23 18:00,18.77,137.9,9.59,12.58,-13.93
2017-05-23 18:20,29.62,124.9,9.49,24.30,-16.95
2017-05-23 18:40,31.68,118.6,9.84,27.82,-15.15
2017-05-23 19:00,29.92,129.8,8.92,22.98,-19.16
2017-05-23 19:20,32.56,140.0,9.78,20.92,-24.94
2017-05-23 19:40,33.14,141.4,9.71,20.67,-25.91
2017-05-23 20:00,21.41,133.7,9.24,15.48,-14.79
2017-05-23 20:20,15.84,137.9,9.52,10.62,-11.75
2017-05-23 20:40,16.42,143.2,9.55,9.84,-13.15
2017-05-23 21:00,9.09,174.5,9.30,0.88,-9.05
2017-05-23 21:20,13.79,166.7,9.74,3.16,-13.42
2017-05-23 21:40,16.72,55.3,10.44,13.74,9.52
2017-05-23 22:00,19.94,48.2,10.73,14.88,13.28
2017-05-23 22:20,20.24,47.9,10.66,15.01,13.57
2017-05-23 22:40,16.42,26.1,8.47,7.22,14.75
2017-05-23 23:00,14.37,15.9,9.59,3.94,13.82
2017-05-23 23:20,7.33,44.4,9.65,5.13,5.24
2017-05-23 23:40,17.30,20.1,10.38,5.95,16.25
2017-05-24 00:00,7.63,5.0,10.19,0.66,7.60
2017-05-24 00:20,4.69,26.1,9.97,2.06,4.21
2017-05-24 00:40,17.01,46.5,10.22,12.34,11.71
2017-05-24 01:00,13.79,71.1,10.19,13.04,4.47
2017-05-24 01:20,12.61,93.6,10.12,12.59,-0.79
2017-05-24 01:40,12.32,118.9,10.03,10.78,-5.96
2017-05-24 02:00,17.60,170.2,10.35,2.98,-17.34
2017-05-24 02:20,20.82,176.9,10.31,1.12,-20.79
2017-05-24 02:40,17.60,183.6,10.19,-1.11,-17.56
2017-05-24 03:00,13.49,166.4,9.87,3.18,-13.11
2017-05-24 03:20,14.66,182.6,9.33,-0.65,-14.65
2017-05-24 03:40,19.36,162.2,9.33,5.93,-18.43
2017-05-24 04:00,27.57,171.7,8.95,4.00,-27.28
2017-05-24 04:20,20.82,183.6,10.69,-1.31,-20.78
2017-05-24 04:40,19.65,179.4,10.57,0.21,-19.65
2017-05-24 05:00,11.15,178.7,10.16,0.26,-11.14
2017-05-24 05:20,22.88,146.3,9.90,12.68,-19.04
2017-05-24 05:40,35.78,170.2,9.78,6.06,-35.27
2017-05-24 06:00,26.40,168.1,9.71,5.43,-25.83
2017-05-24 06:20,16.42,161.1,9.59,5.32,-15.54
2017-05-24 06:40,14.66,117.2,9.27,13.05,-6.69
2017-05-24 07:00,10.85,118.9,9.65,9.50,-5.25
2017-05-24 07:20,19.36,79.9,8.89,19.06,3.40
2017-05-24 07:40,23.46,84.1,9.24,23.34,2.41
2017-05-24 08:00,28.74,96.1,8.98,28.58,-3.03
2017-05-24 08:20,25.81,96.8,8.95,25.63,-3.04
2017-05-24 08:40,19.36,81.6,8.86,19.15,2.81
2017-05-24 09:00,8.21,93.2,8.86,8.20,-0.47
2017-05-24 09:20,4.99,93.2,8.92,4.98,-0.28
2017-05-24 09:40,2.05,109.1,8.92,1.94,-0.67
2017-05-24 10:00,15.54,279.2,9.33,-15.34,2.50
2017-05-24 10:20,11.44,337.3,8.98,-4.42,10.55
2017-05-24 10:40,14.96,355.9,9.24,-1.08,14.92
2017-05-24 11:00,24.05,18.7,9.46,7.71,22.78
2017-05-24 11:20,27.57,5.3,9.11,2.57,27.45
2017-05-24 11:40,23.17,37.7,8.95,14.17,18.33
2017-05-24 12:00,25.81,31.7,9.30,13.57,21.96
2017-05-24 12:20,8.51,50.4,9.17,6.55,5.43
2017-05-24 12:40,3.52,12.0,8.92,0.73,3.44
2017-05-24 13:00,6.45,104.9,9.81,6.24,-1.65
2017-05-24 13:20,19.36,149.9,10.00,9.72,-16.74
2017-05-24 13:40,16.72,151.3,9.65,8.04,-14.66
2017-05-24 14:00,18.77,161.5,9.90,5.97,-17.80
2017-05-24 14:20,18.48,177.3,9.33,0.88,-18.46
2017-05-24 14:40,12.32,149.2,9.27,6.32,-10.58
2017-05-24 15:00,25.52,163.9,9.68,7.07,-24.52
2017-05-24 15:20,25.22,193.1,9.59,-5.72,-24.57
2017-05-24 15:40,26.40,176.6,9.55,1.58,-26.35
2017-05-24 16:00,26.40,178.7,9.30,0.61,-26.39
2017-05-24 16:20,28.16,181.9,8.73,-0.91,-28.14
2017-05-24 16:40,26.69,189.9,8.98,-4.61,-26.29
2017-05-24 17:00,21.70,202.6,9.14,-8.34,-20.04
2017-05-24 17:20,17.89,222.6,9.08,-12.12,-13.16
2017-05-24 17:40,5.57,214.9,8.76,-3.19,-4.57
2017-05-24 18:00,12.61,133.0,8.22,9.23,-8.60
2017-05-24 18:20,9.09,156.2,8.03,3.67,-8.32
2017-05-24 18:40,4.99,135.8,8.22,3.48,-3.57
2017-05-24 19:00,4.11,27.1,7.93,1.87,3.65
2017-05-24 19:20,9.68,77.8,8.06,9.46,2.05
2017-05-24 19:40,13.49,86.9,8.25,13.47,0.73
2017-05-24 20:00,12.03,84.8,8.25,11.98,1.09
2017-05-24 20:20,14.96,78.8,8.41,14.68,2.90
2017-05-24 20:40,14.37,69.3,8.57,13.45,5.07
2017-05-24 21:00,13.49,73.2,8.44,12.92,3.90
2017-05-24 21:20,7.63,67.6,8.51,7.05,2.91
2017-05-24 21:40,4.69,25.4,8.57,2.01,4.24
2017-05-24 22:00,4.11,255.3,8.60,-3.97,-1.04
2017-05-24 22:20,7.63,16.2,8.63,2.13,7.32
2017-05-24 22:40,37.25,10.3,8.79,6.64,36.65
2017-05-24 23:00,41.36,13.1,9.65,9.36,40.28
2017-05-24 23:20,33.73,1.5,9.90,0.87,33.72
2017-05-24 23:40,28.16,9.2,9.97,4.51,27.79
2017-05-25 00:00,34.02,12.7,9.87,7.50,33.19
2017-05-25 00:20,30.21,25.4,9.52,12.95,27.29
2017-05-25 00:40,43.41,26.1,7.93,19.09,38.98
2017-05-25 01:00,37.25,37.0,7.87,22.41,29.75
2017-05-25 01:20,32.56,36.6,8.92,19.43,26.12
2017-05-25 01:40,31.38,43.7,7.07,21.67,22.70
2017-05-25 02:00,18.48,32.4,6.97,9.91,15.60
2017-05-25 02:20,21.70,112.2,9.27,20.09,-8.21
2017-05-25 02:40,14.66,151.3,9.05,7.05,-12.86
2017-05-25 03:00,11.73,182.2,9.17,-0.45,-11.72
2017-05-25 03:20,9.97,192.4,9.24,-2.14,-9.74
2017-05-25 03:40,12.32,194.9,9.33,-3.16,-11.91
2017-05-25 04:00,13.20,204.0,9.33,-5.37,-12.06
2017-05-25 04:20,19.65,210.3,9.59,-9.92,-16.96
2017-05-25 04:40,23.76,195.9,9.30,-6.51,-22.85
2017-05-25 05:00,14.37,183.6,10.09,-0.90,-14.34
2017-05-25 05:20,18.77,174.1,10.12,1.92,-18.67
2017-05-25 05:40,19.06,182.6,8.79,-0.85,-19.05
2017-05-25 06:00,9.68,193.5,8.73,-2.25,-9.41
2017-05-25 06:20,12.32,139.3,8.86,8.03,-9.34
2017-05-25 06:40,25.52,157.6,8.35,9.73,-23.59
2017-05-25 07:00,16.72,160.8,7.96,5.51,-15.78
2017-05-25 07:20,11.44,195.2,8.00,-3.00,-11.04
2017-05-25 07:40,8.21,135.8,8.19,5.73,-5.89
2017-05-25 08:00,14.37,119.3,8.51,12.54,-7.03
2017-05-25 08:20,18.48,107.3,8.51,17.64,-5.50
2017-05-25 08:40,23.17,100.6,8.44,22.77,-4.27
2017-05-25 09:00,16.42,94.7,8.22,16.37,-1.33
2017-05-25 09:20,18.18,75.0,8.25,17.56,4.72
2017-05-25 09:40,17.30,76.0,8.19,16.79,4.18
2017-05-25 10:00,12.61,50.4,8.32,9.71,8.05
2017-05-25 10:20,4.99,25.4,8.38,2.14,4.50
2017-05-25 10:40,9.39,287.7,8.06,-8.94,2.85
2017-05-25 11:00,11.73,351.3,8.38,-1.78,11.60
2017-05-25 11:20,15.25,319.0,8.44,-10.01,11.51
2017-05-25 11:40,19.06,1.1,8.51,0.38,19.06
2017-05-25 12:00,17.30,17.0,8.54,5.05,16.55
2017-05-25 12:20,24.34,12.4,8.95,5.22,23.78
2017-05-25 12:40,29.33,32.4,7.93,15.72,24.76
2017-05-25 13:00,21.41,21.2,7.10,7.73,19.97
2017-05-25 13:20,12.61,24.7,6.84,5.27,11.46
2017-05-25 13:40,11.15,29.3,6.78,5.45,9.72
2017-05-25 14:00,20.24,173.8,9.49,2.20,-20.12
2017-05-25 14:20,10.56,164.6,9.30,2.80,-10.18
2017-05-25 14:40,13.79,156.2,9.21,5.57,-12.61
2017-05-25 15:00,11.44,148.8,9.11,5.93,-9.78
2017-05-25 15:20,11.44,182.6,9.02,-0.51,-11.43
2017-05-25 15:40,16.13,172.4,8.82,2.15,-15.99
2017-05-25 16:00,18.48,163.6,8.86,5.23,-17.72
2017-05-25 16:20,21.70,163.9,8.89,6.01,-20.85
2017-05-25 16:40,19.94,189.9,8.70,-3.44,-19.65
2017-05-25 17:00,29.04,167.1,8.67,6.49,-28.30
2017-05-25 17:20,21.41,173.1,8.47,2.59,-21.25
2017-05-25 17:40,18.18,194.5,8.54,-4.56,-17.60
2017-05-25 18:00,13.20,248.7,8.60,-12.29,-4.80
2017-05-25 18:20,3.81,167.4,8.70,0.83,-3.72
2017-05-25 18:40,5.87,114.3,8.57,5.34,-2.42
2017-05-25 19:00,2.64,313.3,8.57,-1.92,1.81
2017-05-25 19:20,5.87,5.0,8.38,0.51,5.84
2017-05-25 19:40,4.99,27.1,8.22,2.28,4.44
2017-05-25 20:00,9.68,64.1,8.79,8.70,4.23
2017-05-25 20:20,15.84,68.3,8.86,14.71,5.86
2017-05-25 20:40,12.61,81.6,8.44,12.48,1.83
2017-05-25 21:00,9.09,64.1,8.25,8.18,3.98
2017-05-25 21:20,20.24,71.8,8.35,19.23,6.32
2017-05-25 21:40,25.81,75.3,8.28,24.97,6.54
2017-05-25 22:00,17.30,54.6,8.12,14.10,10.03
2017-05-25 22:20,12.61,58.4,8.09,10.75,6.60
2017-05-25 22:40,4.11,9.6,8.16,0.68,4.05
2017-05-25 23:00,5.87,319.3,8.22,-3.82,4.45
2017-05-25 23:20,9.68,274.7,7.65,-9.65,0.79
2017-05-25 23:40,20.53,47.2,8.16,15.06,13.95
2017-05-26 00:00,29.04,9.9,8.38,5.00,28.60
2017-05-26 00:20,28.16,19.4,8.57,9.36,26.56
2017-05-26 00:40,32.56,348.5,9.05,-6.51,31.90
2017-05-26 01:00,25.22,0.1,8.41,0.03,25.22
2017-05-26 01:20,33.14,18.7,7.52,10.63,31.39
2017-05-26 01:40,34.32,30.7,6.72,17.50,29.52
2017-05-26 02:00,28.74,28.9,8.51,13.89,25.16
2017-05-26 02:20,30.80,28.2,8.22,14.55,27.14
2017-05-26 02:40,28.16,16.2,7.68,7.88,27.03
2017-05-26 03:00,13.49,88.0,8.19,13.48,0.48
2017-05-26 03:20,15.84,51.4,8.95,12.38,9.88
2017-05-26 03:40,16.13,83.1,8.60,16.01,1.95
2017-05-26 04:00,14.37,152.7,8.92,6.60,-12.77
2017-05-26 04:20,19.36,210.0,8.92,-9.67,-16.77
2017-05-26 04:40,26.10,216.0,8.70,-15.33,-21.13
2017-05-26 05:00,24.64,218.4,8.44,-15.31,-19.30
2017-05-26 05:20,29.62,229.3,8.47,-22.46,-19.31
2017-05-26 05:40,26.10,223.3,8.51,-17.92,-18.99
2017-05-26 06:00,24.05,236.7,8.16,-20.10,-13.20
2017-05-26 06:20,11.15,191.0,8.12,-2.13,-10.94
2017-05-26 06:40,2.64,194.5,7.87,-0.66,-2.56
2017-05-26 07:00,30.50,173.1,7.55,3.69,-30.28
2017-05-26 07:20,11.44,174.1,7.84,1.17,-11.38
2017-05-26 07:40,6.75,36.6,7.71,4.03,5.41
2017-05-26 08:00,14.37,75.0,7.68,13.88,3.73
2017-05-26 08:20,16.72,47.9,7.65,12.40,11.21
2017-05-26 08:40,21.70,90.8,7.68,21.70,-0.30
2017-05-26 09:00,23.46,110.1,7.90,22.03,-8.07
2017-05-26 09:20,29.92,130.2,7.74,22.86,-19.30
2017-05-26 09:40,21.12,103.4,7.55,20.54,-4.91
2017-05-26 10:00,31.09,80.6,7.81,30.67,5.08
2017-05-26 10:20,21.41,80.2,7.65,21.10,3.63
2017-05-26 10:40,17.30,86.6,7.55,17.27,1.04
2017-05-26 11:00,17.30,70.4,7.52,16.30,5.81
2017-05-26 11:20,13.79,76.0,7.58,13.38,3.33
2017-05-26 11:40,15.54,76.0,7.55,15.08,3.76
2017-05-26 12:00,6.45,2.5,7.55,0.29,6.45
2017-05-26 12:20,7.63,343.2,7.61,-2.20,7.30
2017-05-26 12:40,15.84,317.9,7.49,-10.61,11.76
2017-05-26 13:00,15.84,335.9,7.36,-6.48,14.45
2017-05-26 13:20,16.72,4.3,7.74,1.25,16.67
2017-05-26 13:40,19.65,333.0,7.74,-8.91,17.52
2017-05-26 14:00,13.49,334.8,7.58,-5.75,12.21
2017-05-26 14:20,20.24,4.3,6.97,1.51,20.18
2017-05-26 14:40,15.25,13.1,6.43,3.45,14.86
2017-05-26 15:00,17.89,336.6,7.07,-7.12,16.41
2017-05-26 15:20,14.96,344.6,6.91,-3.97,14.42
2017-05-26 15:40,5.28,7.5,7.23,0.69,5.23
2017-05-26 16:00,8.51,353.0,7.39,-1.03,8.44
2017-05-26 16:20,10.56,31.7,7.49,5.55,8.98
2017-05-26 16:40,14.96,146.7,7.52,8.21,-12.50
2017-05-26 17:00,42.24,185.7,7.61,-4.21,-42.03
2017-05-26 17:20,30.50,186.8,7.68,-3.60,-30.29
2017-05-26 17:40,34.02,193.5,7.68,-7.92,-33.09
2017-05-26 18:00,35.78,188.2,7.61,-5.09,-35.42
2017-05-26 18:20,38.72,185.7,7.55,-3.86,-38.52
2017-05-26 18:40,28.45,185.0,7.52,-2.49,-28.34